TimePDT,TemperatureF,Dew PointF,Humidity,Sea Level PressureIn,VisibilityMPH,Wind Direction,Wind SpeedMPH,Gust SpeedMPH,PrecipitationIn,Events,Conditions,WindDirDegrees,DateUTC
12:56 AM,28.0,26.1,92,30.25,10.0,Calm,Calm,-,N/A,,Clear,0,2013-04-09 07:56:00
1:56 AM,27.0,24.1,89,30.25,10.0,Calm,Calm,-,N/A,,Clear,0,2013-04-09 08:56:00
2:56 AM,26.1,23.0,88,30.25,10.0,Calm,Calm,-,N/A,,Clear,0,2013-04-09 09:56:00
3:56 AM,25.0,21.9,88,30.27,10.0,Calm,Calm,-,N/A,,Partly Cloudy,0,2013-04-09 10:56:00
4:04 AM,24.8,23.0,93,30.19,10.0,Calm,Calm,-,N/A,,Mostly Cloudy,0,2013-04-09 11:04:00
4:43 AM,26.6,24.8,93,30.19,1.8,Calm,Calm,-,N/A,,Overcast,0,2013-04-09 11:43:00
4:56 AM,28.0,26.1,92,30.27,0.8,Calm,Calm,-,N/A,,Mist,0,2013-04-09 11:56:00
5:42 AM,28.4,26.6,93,30.21,2.0,Calm,Calm,-,N/A,,Overcast,0,2013-04-09 12:42:00
5:56 AM,28.9,28.0,96,30.28,1.0,Calm,Calm,-,N/A,,Mist,0,2013-04-09 12:56:00
6:05 AM,28.4,28.4,100,30.22,0.5,Calm,Calm,-,N/A,Fog,Light Freezing Fog,0,2013-04-09 13:05:00
6:24 AM,30.2,28.4,93,30.23,2.0,Calm,Calm,-,N/A,,Overcast,0,2013-04-09 13:24:00
6:35 AM,30.2,28.4,93,30.23,0.8,Calm,Calm,-,N/A,,Mist,0,2013-04-09 13:35:00
6:46 AM,30.2,28.4,93,30.23,2.0,Calm,Calm,-,N/A,,Overcast,0,2013-04-09 13:46:00
6:56 AM,30.0,28.9,96,30.31,1.8,Calm,Calm,-,N/A,,Overcast,0,2013-04-09 13:56:00
7:04 AM,30.2,28.4,93,30.24,2.5,Calm,Calm,-,N/A,,Overcast,0,2013-04-09 14:04:00
7:35 AM,32.0,30.2,93,30.24,1.2,Calm,Calm,-,N/A,,Overcast,0,2013-04-09 14:35:00
7:56 AM,32.0,30.9,96,30.32,2.0,Calm,Calm,-,N/A,,Overcast,0,2013-04-09 14:56:00
8:03 AM,32.0,30.2,93,30.25,1.5,Calm,Calm,-,N/A,,Overcast,0,2013-04-09 15:03:00
8:37 AM,32.0,30.2,93,30.25,0.8,Calm,Calm,-,N/A,,Overcast,0,2013-04-09 15:37:00
8:49 AM,33.8,32.0,93,30.26,1.8,Calm,Calm,-,N/A,,Overcast,0,2013-04-09 15:49:00
8:56 AM,33.1,32.0,96,30.34,3.0,Calm,Calm,-,N/A,,Overcast,0,2013-04-09 15:56:00
9:13 AM,33.8,32.0,93,30.26,2.0,Calm,Calm,-,N/A,,Overcast,0,2013-04-09 16:13:00
9:24 AM,33.8,33.8,100,30.26,3.0,Calm,Calm,-,N/A,,Overcast,0,2013-04-09 16:24:00
9:56 AM,36.0,34.0,93,30.33,7.0,Calm,Calm,-,N/A,,Mostly Cloudy,0,2013-04-09 16:56:00
10:05 AM,37.4,33.8,87,30.26,10.0,Calm,Calm,-,N/A,,Scattered Clouds,0,2013-04-09 17:05:00
10:42 AM,41.0,33.8,76,30.25,10.0,Calm,Calm,-,N/A,,Mostly Cloudy,0,2013-04-09 17:42:00
10:56 AM,43.0,33.1,68,30.31,10.0,Calm,Calm,-,N/A,,Scattered Clouds,0,2013-04-09 17:56:00
11:56 AM,45.0,30.9,58,30.32,10.0,NNE,3.5,-,N/A,,Mostly Cloudy,30,2013-04-09 18:56:00
12:56 PM,45.0,35.1,68,30.32,10.0,Variable,3.5,-,N/A,,Mostly Cloudy,0,2013-04-09 19:56:00
1:56 PM,46.0,32.0,58,30.31,10.0,Variable,4.6,-,N/A,,Mostly Cloudy,0,2013-04-09 20:56:00
2:56 PM,46.9,30.9,54,30.31,10.0,Calm,Calm,-,N/A,,Mostly Cloudy,0,2013-04-09 21:56:00
3:56 PM,46.9,30.9,54,30.30,10.0,Variable,3.5,-,N/A,,Mostly Cloudy,0,2013-04-09 22:56:00
4:56 PM,46.0,30.0,54,30.29,10.0,Calm,Calm,-,N/A,,Scattered Clouds,0,2013-04-09 23:56:00
5:56 PM,46.9,30.0,52,30.30,10.0,NNE,5.8,-,N/A,,Partly Cloudy,30,2013-04-10 00:56:00
6:56 PM,44.1,32.0,63,30.29,10.0,Calm,Calm,-,N/A,,Clear,0,2013-04-10 01:56:00
7:56 PM,37.9,33.1,83,30.30,-9999.0,Calm,Calm,-,N/A,,Clear,0,2013-04-10 02:56:00
8:56 PM,34.0,30.9,89,30.30,-9999.0,Calm,Calm,-,N/A,,Clear,0,2013-04-10 03:56:00
9:56 PM,32.0,28.9,88,30.30,10.0,Calm,Calm,-,N/A,,Clear,0,2013-04-10 04:56:00
10:56 PM,30.0,28.0,92,30.28,8.0,Calm,Calm,-,N/A,,Clear,0,2013-04-10 05:56:00
11:56 PM,28.9,27.0,92,30.27,7.0,Calm,Calm,-,N/A,,Clear,0,2013-04-10 06:56:00